Weather reports worldwide

Advertisment
Sortland, Norway (1167): temperature & dewpoint: 11.08.2019 20:00:00 - 17.08.2019 20:00:00 (CEST)Sortland, Norway (1167): wind speed: 11.08.2019 20:00:00 - 17.08.2019 20:00:00 (CEST)Sortland, Norway (1167): wind direction: 11.08.2019 20:00:00 - 17.08.2019 20:00:00 (CEST)Sortland, Norway (1167): reduced air pressure: 11.08.2019 20:00:00 - 17.08.2019 20:00:00 (CEST)Sortland, Norway (1167): visibility: 11.08.2019 20:00:00 - 17.08.2019 20:00:00 (CEST)
Date & Time tt [°C] td [°C] ff [km/h] ff [kn] dd ppp [hPa] vv [km]
17.08.2019 20:00:00 - - - - - - -
17.08.2019 19:00:00 - - - - - - -
17.08.2019 18:00:00 - - - - - - -
17.08.2019 17:00:00 16,1 11,3 13 7 N 1001,1 65
17.08.2019 16:00:00 - - - - - - -
17.08.2019 15:00:00 - - - - - - -
17.08.2019 14:00:00 15,6 - 11 6 N 1002,4 65
17.08.2019 13:00:00 - - - - - - -
17.08.2019 12:00:00 - - - - - - -
17.08.2019 11:00:00 14,1 - 5 3 E 1003,5 65
17.08.2019 10:00:00 - - - - - - -
17.08.2019 09:00:00 - - - - - - -
17.08.2019 08:00:00 12,3 - 2 1 ENE 1004,1 65
17.08.2019 07:00:00 - - - - - - -
17.08.2019 06:00:00 - - - - - - -
17.08.2019 05:00:00 10,3 - 5 3 NW 1004,4 55
17.08.2019 04:00:00 - - - - - - -
17.08.2019 03:00:00 - - - - - - -
17.08.2019 02:00:00 12,4 - 11 6 SSE 1004,8 55
17.08.2019 01:00:00 - - - - - - -
17.08.2019 00:00:00 - - - - - - -
16.08.2019 23:00:00 12,5 - 9 5 SSE 1004,6 65
16.08.2019 22:00:00 - - - - - - -
16.08.2019 21:00:00 - - - - - - -
16.08.2019 20:00:00 12,8 - 7 4 N 1004,5 65
16.08.2019 19:00:00 - - - - - - -
16.08.2019 18:00:00 - - - - - - -
16.08.2019 17:00:00 13,2 - 15 8 N 1004,4 70
16.08.2019 16:00:00 - - - - - - -
16.08.2019 15:00:00 - - - - - - -
16.08.2019 14:00:00 13,7 - 20 11 N 1004,3 65
16.08.2019 13:00:00 - - - - - - -
16.08.2019 12:00:00 - - - - - - -
16.08.2019 11:00:00 12,4 - 15 8 N 1004,9 65
16.08.2019 10:00:00 - - - - - - -
16.08.2019 09:00:00 - - - - - - -
16.08.2019 08:00:00 11,2 - 4 2 NNW 1006,5 25
16.08.2019 07:00:00 - - - - - - -
16.08.2019 06:00:00 - - - - - - -
16.08.2019 05:00:00 10,6 - 4 2 SW 1006,9 25
16.08.2019 04:00:00 - - - - - - -
16.08.2019 03:00:00 - - - - - - -
16.08.2019 02:00:00 11,6 - 5 3 S 1007,3 30
16.08.2019 01:00:00 - - - - - - -
16.08.2019 00:00:00 - - - - - - -
15.08.2019 23:00:00 11,9 - 7 4 SSW 1007,5 65
15.08.2019 22:00:00 - - - - - - -
15.08.2019 21:00:00 - - - - - - -
15.08.2019 20:00:00 12,8 - 2 1 SSW 1007,3 55
15.08.2019 19:00:00 - - - - - - -
15.08.2019 18:00:00 - - - - - - -
15.08.2019 17:00:00 12,2 - 5 3 N 1006,7 20
15.08.2019 16:00:00 - - - - - - -
15.08.2019 15:00:00 - - - - - - -
15.08.2019 14:00:00 11,9 - 7 4 N 1006,1 3,0
15.08.2019 13:00:00 - - - - - - -
15.08.2019 12:00:00 - - - - - - -
15.08.2019 11:00:00 12,4 - 4 2 SSW 1005,4 2,0
15.08.2019 10:00:00 - - - - - - -
15.08.2019 09:00:00 - - - - - - -
15.08.2019 08:00:00 12,4 - 2 1 S 1004,6 1,0
15.08.2019 07:00:00 - - - - - - -
15.08.2019 06:00:00 - - - - - - -
15.08.2019 05:00:00 12,4 - 9 5 S 1004,3 3,0
15.08.2019 04:00:00 - - - - - - -
15.08.2019 03:00:00 - - - - - - -
15.08.2019 02:00:00 11,9 - 0 0 N 1004,2 1,0
15.08.2019 01:00:00 - - - - - - -
15.08.2019 00:00:00 - - - - - - -
14.08.2019 23:00:00 11,1 - 4 2 N 1004,0 3,0
14.08.2019 22:00:00 - - - - - - -
14.08.2019 21:00:00 - - - - - - -
14.08.2019 20:00:00 11,6 - 5 3 N 1003,5 3,0
14.08.2019 19:00:00 - - - - - - -
14.08.2019 18:00:00 - - - - - - -
14.08.2019 17:00:00 11,8 - 11 6 N 1003,3 3,0
14.08.2019 16:00:00 - - - - - - -
14.08.2019 15:00:00 - - - - - - -
14.08.2019 14:00:00 13,0 - 13 7 N 1002,9 55
14.08.2019 13:00:00 - - - - - - -
14.08.2019 12:00:00 - - - - - - -
14.08.2019 11:00:00 12,3 - 20 11 N 1002,3 55
14.08.2019 10:00:00 - - - - - - -
14.08.2019 09:00:00 - - - - - - -
14.08.2019 08:00:00 11,9 - 13 7 NNW 1002,0 25
14.08.2019 07:00:00 - - - - - - -
14.08.2019 06:00:00 - - - - - - -
14.08.2019 05:00:00 11,3 - 16 9 NNW 1001,6 25
14.08.2019 04:00:00 - - - - - - -
14.08.2019 03:00:00 - - - - - - -
14.08.2019 02:00:00 11,3 - 16 9 NNW 1001,8 20
14.08.2019 01:00:00 - - - - - - -
14.08.2019 00:00:00 - - - - - - -
13.08.2019 23:00:00 11,3 - 18 10 NNW 1002,1 40
13.08.2019 22:00:00 - - - - - - -
13.08.2019 21:00:00 - - - - - - -
13.08.2019 20:00:00 13,3 - 22 12 N 1001,9 75
13.08.2019 19:00:00 - - - - - - -
13.08.2019 18:00:00 - - - - - - -
13.08.2019 17:00:00 15,2 - 26 14 N 1001,8 75
13.08.2019 16:00:00 - - - - - - -
13.08.2019 15:00:00 - - - - - - -
13.08.2019 14:00:00 15,5 - 28 15 N 1002,3 75
13.08.2019 13:00:00 - - - - - - -
13.08.2019 12:00:00 - - - - - - -
13.08.2019 11:00:00 14,5 - 15 8 N 1002,5 75
13.08.2019 10:00:00 - - - - - - -
13.08.2019 09:00:00 - - - - - - -
13.08.2019 08:00:00 12,3 - 15 8 NNW 1002,8 55
13.08.2019 07:00:00 - - - - - - -
13.08.2019 06:00:00 - - - - - - -
13.08.2019 05:00:00 11,4 - 14 8 NNW 1002,8 40
13.08.2019 04:00:00 - - - - - - -
13.08.2019 03:00:00 - - - - - - -
13.08.2019 02:00:00 11,8 - 13 7 NNW 1002,8 40
13.08.2019 01:00:00 - - - - - - -
13.08.2019 00:00:00 - - - - - - -
12.08.2019 23:00:00 12,1 - 16 9 NNW 1002,6 70
12.08.2019 22:00:00 - - - - - - -
12.08.2019 21:00:00 - - - - - - -
12.08.2019 20:00:00 16,1 16,1 18 10 NNW 1001,9 70
12.08.2019 19:00:00 - - - - - - -
12.08.2019 18:00:00 - - - - - - -
12.08.2019 17:00:00 18,6 17,6 16 9 NNW 1001,5 70
12.08.2019 16:00:00 - - - - - - -
12.08.2019 15:00:00 - - - - - - -
12.08.2019 14:00:00 17,4 16,4 18 10 N 1001,9 70
12.08.2019 13:00:00 - - - - - - -
12.08.2019 12:00:00 - - - - - - -
12.08.2019 11:00:00 16,8 - 18 10 N 1002,0 70
12.08.2019 10:00:00 - - - - - - -
12.08.2019 09:00:00 - - - - - - -
12.08.2019 08:00:00 13,4 - 5 3 E 1002,2 65
12.08.2019 07:00:00 - - - - - - -
12.08.2019 06:00:00 - - - - - - -
12.08.2019 05:00:00 12,4 - 11 6 NNW 1002,7 65
12.08.2019 04:00:00 - - - - - - -
12.08.2019 03:00:00 - - - - - - -
12.08.2019 02:00:00 13,8 - 5 3 N 1003,0 65
12.08.2019 01:00:00 - - - - - - -
12.08.2019 00:00:00 - - - - - - -
11.08.2019 23:00:00 13,9 - 7 4 N 1003,0 70
11.08.2019 22:00:00 - - - - - - -
11.08.2019 21:00:00 - - - - - - -
11.08.2019 20:00:00 16,3 - 4 2 N 1002,7 70

tt = temperature
td = dewpoint
ff = wind speed
dd = wind direction
ppp = reduced air pressure
vv = visibility

Next stations